Regional Weather Roundup
Issued by NWS

Home | Current Version | Previous Version | Text Only | Print | Product List | Glossary Off
Versions: 1 2 3 4 5 6 7 8 9 10 11 12 13 14 15 16 17 18 19 20 21 22 23 24 25 26 27 28 29 30 31 32 33 34 35 36 37 38 39 40 41 42 43 44 45 46 47 48 49 50

000
ASUS43 KMKX 060000
RWRWI

WISCONSIN REGIONAL WEATHER ROUNDUP
NATIONAL WEATHER SERVICE MILWAUKEE/SULLIVAN WI
700 PM CDT TUE MAY 05 2015

NOTE: "FAIR" INDICATES FEW OR NO CLOUDS BELOW 12,000 FEET WITH NO
SIGNIFICANT WEATHER AND/OR OBSTRUCTIONS TO VISIBILITY.

WIZ001-002-006>008-014>016-023>028-060100-
NORTHWEST WISCONSIN

CITY           SKY/WX    TMP DP  RH WIND       PRES   REMARKS
SUPERIOR ARPT  SUNNY     51  34  52 NE12      30.16S
ASHLAND        SUNNY     51  37  58 N12       30.17F
6HR MIN TEMP:  51; 6HR MAX TEMP:  69;

HAYWARD        SUNNY     69  26  20 S12G20    30.16S
6HR MIN TEMP:  69; 6HR MAX TEMP:  73;

SIREN          MOSUNNY   71  30  22 SE14G21   30.14R
CUMBERLAND     MOSUNNY   64  30  27 SE14      30.15F
RICE LAKE      PTSUNNY   66  27  23 SE14      30.18S
CHETEK         CLOUDY    65  32  29 E10G17    30.17S
LADYSMITH      MOSUNNY   67  27  22 S9G18     30.20S
EAU CLAIRE     CLOUDY    64  39  39 SE13      30.16F
6HR MIN TEMP:  64; 6HR MAX TEMP:  69;

MENOMONIE      PTSUNNY   65  39  39 E15       30.16F
NEW RICHMOND   MOSUNNY   66  35  32 SE15      30.14F
OSCEOLA        MOSUNNY   67  33  29 SE17G23   30.16S
$$

WIZ003>005-009-010-017-018-060100-
NORTH CENTRAL WISCONSIN

CITY           SKY/WX    TMP DP  RH WIND       PRES   REMARKS
MANITOWISH WTR SUNNY     67  31  25 S9        30.19F
ARBOR VITAE    SUNNY     68  26  21 S9        30.20S
WOODRUFF       SUNNY     68  26  21 S9        30.20S
RHINELANDER    MOSUNNY   65  25  22 S14G21    30.22F
6HR MIN TEMP:  65; 6HR MAX TEMP:  70;

EAGLE RIVER    SUNNY     67  26  22 SE6       30.20F
LAND O LAKES   SUNNY     69  28  21 S7        30.21S
PHILLIPS       MOSUNNY   67  27  22 SE12      30.18F
TOMAHAWK       PTSUNNY   64  27  24 S5        30.21F
MEDFORD        CLOUDY    62  28  27 SE10G18   30.20F
MERRILL        PTSUNNY   64  25  22 SE8       30.23S
$$

WIZ029-030-035-036-043>047-060100-
CENTRAL WISCONSIN

CITY           SKY/WX    TMP DP  RH WIND       PRES   REMARKS
WAUSAU         CLOUDY    62  17  17 SE12      30.21S
6HR MIN TEMP:  62; 6HR MAX TEMP:  70;

MOSINEE        SUNNY     61  25  25 SE6       30.23F
MARSHFIELD     CLOUDY    61  35  37 SE12      30.20F
6HR MIN TEMP:  61; 6HR MAX TEMP:  68;

STEVENS POINT  CLOUDY    61  30  31 SE13      30.22F
WAUPACA        CLOUDY    64  40  41 E6        30.23S
WAUTOMA        NOT AVBL
WISC RAPIDS    CLOUDY    62  32  32 SE8       30.22F
6HR MIN TEMP:  62; 6HR MAX TEMP:  66;

CAMP DOUGLAS   NOT AVBL
$$

WIZ011>013-019>022-031-037>040-048>050-060100-
NORTHEAST WISCONSIN

CITY           SKY/WX    TMP DP  RH WIND       PRES   REMARKS
ANTIGO         PTSUNNY   60  29  30 SE10      30.24S
SHAWANO        MOCLDY    64  22  20 SE7       30.25S
OCONTO         MOCLDY    62  28  28 E5        30.24F
STURGEON BAY   MOCLDY    61  25  25 CALM      30.27F
6HR MIN TEMP:  61; 6HR MAX TEMP:  63;

GREEN BAY      CLOUDY    62  26  25 E7        30.24F
6HR MIN TEMP:  62; 6HR MAX TEMP:  66;

MANITOWOC      NOT AVBL
APPLETON       NOT AVBL
CLINTONVILLE   CLOUDY    63  19  19 E8        30.23F
OSHKOSH        CLOUDY    58  47  66 SE7       30.23S
6HR MIN TEMP:  58; 6HR MAX TEMP:  62;

$$

WIZ032>034-041-042-053>061-060100-
SOUTHWEST WISCONSIN

CITY           SKY/WX    TMP DP  RH WIND       PRES   REMARKS
LA CROSSE      LGT RAIN  57  53  86 SE6       30.17F FOG
6HR MIN TEMP:  57; 6HR MAX TEMP:  59; 6HR PCP:  0.03;

SPARTA         CLOUDY    55  49  82 E8        30.20F
VIROQUA        CLOUDY    53  53 100 E12       30.18F
BOSCOBEL       CLOUDY    56  53  90 E3        30.18F FOG
6HR MIN TEMP:  54; 6HR MAX TEMP:  56; 6HR PCP:  0.05;

PRAIRIE DU CHI CLOUDY    54  53  96 E7        30.16S
PLATTEVILLE    CLOUDY    56  54  94 E13       30.16F
$$

WIZ056-057-062-063-064-067-068-060100-
SOUTH CENTRAL WISCONSIN

CITY           SKY/WX    TMP DP  RH WIND       PRES   REMARKS
REEDSBURG      CLOUDY    55  52  90 E6        30.19F
BARABOO/DELLS  NOT AVBL
LONE ROCK      NOT AVBL
MINERAL POINT  CLOUDY    55  54  94 E13       30.18F
MADISON        CLOUDY    55  50  83 E10       30.20F
6HR MIN TEMP:  53; 6HR MAX TEMP:  56; 6HR PCP:  0.01;

MIDDLETON      CLOUDY    56  51  82 E8        30.21S
WATERTOWN      CLOUDY    54  51  89 E6        30.21F
MONROE         CLOUDY    52  50  93 E8        30.19S
JANESVILLE     CLOUDY    52  50  93 E14       30.19F
$$

WIZ051-052-058>065-066-070>072-060100-
SOUTHEAST WISCONSIN

CITY           SKY/WX    TMP DP  RH WIND       PRES   REMARKS
MILWAUKEE      CLOUDY    47  42  83 NE6       30.24F
6HR MIN TEMP:  45; 6HR MAX TEMP:  48; 6HR PCP:  0.05;

WAUKESHA       CLOUDY    50  45  81 E8        30.24F
MILWAUKEE/TIMM NOT AVBL
RACINE         CLOUDY    46  43  89 N7        30.25F
6HR MIN TEMP:  45; 6HR MAX TEMP:  48; 6HR PCP:  0.05;

BURLINGTON     CLOUDY    47  46  96 E8        30.22S
KENOSHA        CLOUDY    48  46  93 E10       30.23S
6HR MIN TEMP:  47; 6HR MAX TEMP:  49; 6HR PCP:  0.01;

FOND DU LAC    LGT RAIN  55  46  71 E8        30.23F
6HR MIN TEMP:  55; 6HR MAX TEMP:  59; 6HR PCP: TRACE;

SHEBOYGAN      CLOUDY    54  42  64 SE3       30.24F
6HR MIN TEMP:  54; 6HR MAX TEMP:  58;

WEST BEND      CLOUDY    50  43  76 E3        30.24S
JUNEAU         CLOUDY    54  47  77 E10       30.23F
$$

LSZ147-162-060100-
LAKE SUPERIOR

STATION/POSITION TIME  TEMP    WIND        PRES    WAVE
                       AIR SEA DIR/SP/G            HT/PER
                 (UTC) (F)     (DEG/KT/KT) (MB)    (FT/S)
W MID LAKE BUOY  2250   40 36   50/ 10/ 10 1023.5F   0
DEVILS ISLAND    2300   44     100/ 16/ 18 1022.5F
PORT WING        2300   48      30/ 12/ 14 1020.3
SAXON HARBOR     2300   49     330/  7/ 10 1021.0
$$

LMZ867-665-643>646-060100-
LAKE MICHIGAN

STATION/POSITION TIME  TEMP    WIND        PRES    WAVE
                       AIR SEA DIR/SP/G            HT/PER
                 (UTC) (F)     (DEG/KT/KT) (MB)    (FT/S)
CHAMBERS ISLAND  2300   50      10/  4/  6 1025.1S
NORTHPORT PIER   2300   49     320/  4/  5 1024.7F
SISTER BAY       2232   63     140/  7/  9   N/A
KEWAUNEE LAKESHO 2300   48      40/  7/  8 1023.8F
SHEBOYGAN LAKESH 2300   44      40/  4/  5 1025.1F
PORT WASHINGTON  2300   49      50/  3/  4 1024.7F
ATWATER BUOY     2300   45     360/  6/  8 1025.3F
MILWAUKEE LAKESH 2300   47      20/  8/  8   N/A
KENOSHA   LAKESH 2300   45      20/ 11/ 12 1023.7S
$$

TC  - TEMPERATURE IN CELSIUS
VSB - VISIBILITY IN STATUTE MILES
WCI - WIND CHILL INDEX
HX  - HEAT INDEX




USA.gov is the U.S. government's official web portal to all federal, state and local government web resources and services.